Year,Month,Day,Hour,Minute,Value (Times are PST for temperature in C)
2011,11,12,00,00,3.30
2011,11,12,00,01,3.30
2011,11,12,00,02,3.30
2011,11,12,00,03,3.30
2011,11,12,00,04,3.30
2011,11,12,00,05,3.20
2011,11,12,00,06,3.20
2011,11,12,00,07,3.20
2011,11,12,00,08,3.20
2011,11,12,00,09,3.10
2011,11,12,00,10,3.10
2011,11,12,00,11,3.10
2011,11,12,00,12,3.10
2011,11,12,00,13,3.10
2011,11,12,00,14,3.10
2011,11,12,00,15,3.10
2011,11,12,00,16,3.10
2011,11,12,00,17,3.10
2011,11,12,00,18,3.10
2011,11,12,00,19,3.10
2011,11,12,00,20,3.10
2011,11,12,00,21,3.10
2011,11,12,00,22,3.10
2011,11,12,00,23,3.10
2011,11,12,00,24,3.10
2011,11,12,00,25,3.10
2011,11,12,00,26,3.10
2011,11,12,00,27,3.10
2011,11,12,00,28,3.10
2011,11,12,00,29,3.10
2011,11,12,00,30,3.10
2011,11,12,00,31,3.10
2011,11,12,00,32,3.10
2011,11,12,00,33,3.10
2011,11,12,00,34,3.00
2011,11,12,00,35,2.90
2011,11,12,00,36,2.90
2011,11,12,00,37,2.90
2011,11,12,00,38,2.90
2011,11,12,00,39,2.90
2011,11,12,00,40,2.90
2011,11,12,00,41,2.90
2011,11,12,00,42,2.90
2011,11,12,00,43,2.90
2011,11,12,00,44,2.90
2011,11,12,00,45,2.90
2011,11,12,00,46,2.90
2011,11,12,00,47,2.90
2011,11,12,00,48,2.90
2011,11,12,00,49,2.90
2011,11,12,00,50,2.90
2011,11,12,00,51,2.80
2011,11,12,00,52,2.80
2011,11,12,00,53,2.80
2011,11,12,00,54,2.80
2011,11,12,00,55,2.80
2011,11,12,00,56,2.80
2011,11,12,00,57,2.80
2011,11,12,00,58,2.80
2011,11,12,00,59,2.80
2011,11,12,01,00,2.70
2011,11,12,01,01,2.70
2011,11,12,01,02,2.70
2011,11,12,01,03,2.70
2011,11,12,01,04,2.70
2011,11,12,01,05,2.70
2011,11,12,01,06,2.70
2011,11,12,01,07,2.70
2011,11,12,01,08,2.70
2011,11,12,01,09,2.60
2011,11,12,01,10,2.60
2011,11,12,01,11,2.60
2011,11,12,01,12,2.60
2011,11,12,01,13,2.70
2011,11,12,01,14,2.70
2011,11,12,01,15,2.70
2011,11,12,01,16,2.70
2011,11,12,01,17,2.70
2011,11,12,01,18,2.70
2011,11,12,01,19,2.70
2011,11,12,01,20,2.70
2011,11,12,01,21,2.70
2011,11,12,01,22,2.70
2011,11,12,01,23,2.70
2011,11,12,01,24,2.70
2011,11,12,01,25,2.70
2011,11,12,01,26,2.70
2011,11,12,01,27,2.70
2011,11,12,01,28,2.60
2011,11,12,01,29,2.60
2011,11,12,01,30,2.60
2011,11,12,01,31,2.60
2011,11,12,01,32,2.50
2011,11,12,01,33,2.50
2011,11,12,01,34,2.50
2011,11,12,01,35,2.40
2011,11,12,01,36,2.40
2011,11,12,01,37,2.40
2011,11,12,01,38,2.30
2011,11,12,01,39,2.30
2011,11,12,01,40,2.30
2011,11,12,01,41,2.20
2011,11,12,01,42,2.20
2011,11,12,01,43,2.20
2011,11,12,01,44,2.20
2011,11,12,01,45,2.20
2011,11,12,01,46,2.20
2011,11,12,01,47,2.20
2011,11,12,01,48,2.20
2011,11,12,01,49,2.20
2011,11,12,01,50,2.20
2011,11,12,01,51,2.20
2011,11,12,01,52,2.20
2011,11,12,01,53,2.20
2011,11,12,01,54,2.20
2011,11,12,01,55,2.20
2011,11,12,01,56,2.20
2011,11,12,01,57,2.20
2011,11,12,01,58,2.10
2011,11,12,01,59,2.10
2011,11,12,02,00,2.10
2011,11,12,02,01,2.10
2011,11,12,02,02,2.10
2011,11,12,02,03,2.10
2011,11,12,02,04,2.10
2011,11,12,02,05,2.10
2011,11,12,02,06,2.10
2011,11,12,02,07,2.10
2011,11,12,02,08,2.10
2011,11,12,02,09,2.00
2011,11,12,02,10,2.00
2011,11,12,02,11,2.00
2011,11,12,02,12,2.00
2011,11,12,02,13,2.00
2011,11,12,02,14,2.00
2011,11,12,02,15,2.00
2011,11,12,02,16,2.00
2011,11,12,02,17,2.00
2011,11,12,02,18,2.00
2011,11,12,02,19,2.00
2011,11,12,02,20,2.00
2011,11,12,02,21,2.00
2011,11,12,02,22,2.00
2011,11,12,02,23,2.00
2011,11,12,02,24,2.00
2011,11,12,02,25,2.00
2011,11,12,02,26,2.00
2011,11,12,02,27,2.00
2011,11,12,02,28,2.00
2011,11,12,02,29,2.00
2011,11,12,02,30,2.00
2011,11,12,02,31,2.00
2011,11,12,02,32,2.00
2011,11,12,02,33,2.00
2011,11,12,02,34,2.00
2011,11,12,02,35,1.90
2011,11,12,02,36,1.90
2011,11,12,02,37,1.90
2011,11,12,02,38,1.90
2011,11,12,02,39,1.80
2011,11,12,02,40,1.80
2011,11,12,02,41,1.80
2011,11,12,02,42,1.80
2011,11,12,02,43,1.80
2011,11,12,02,44,1.80
2011,11,12,02,45,1.80
2011,11,12,02,46,1.80
2011,11,12,02,47,1.80
2011,11,12,02,48,1.80
2011,11,12,02,49,1.80
2011,11,12,02,50,1.80
2011,11,12,02,51,1.80
2011,11,12,02,52,1.80
2011,11,12,02,53,1.80
2011,11,12,02,54,1.80
2011,11,12,02,55,1.80
2011,11,12,02,56,1.80
2011,11,12,02,57,1.80
2011,11,12,02,58,1.80
2011,11,12,02,59,1.80
2011,11,12,03,00,1.80
2011,11,12,03,01,1.80
2011,11,12,03,02,1.80
2011,11,12,03,03,1.80
2011,11,12,03,04,1.80
2011,11,12,03,05,1.80
2011,11,12,03,06,1.80
2011,11,12,03,07,1.80
2011,11,12,03,08,1.80
2011,11,12,03,09,1.80
2011,11,12,03,10,1.80
2011,11,12,03,11,1.80
2011,11,12,03,12,1.80
2011,11,12,03,13,1.80
2011,11,12,03,14,1.80
2011,11,12,03,15,1.80
2011,11,12,03,16,1.80
2011,11,12,03,17,1.80
2011,11,12,03,18,1.80
2011,11,12,03,19,1.80
2011,11,12,03,20,1.80
2011,11,12,03,21,1.70
2011,11,12,03,22,1.70
2011,11,12,03,23,1.70
2011,11,12,03,24,1.70
2011,11,12,03,25,1.70
2011,11,12,03,26,1.60
2011,11,12,03,27,1.60
2011,11,12,03,28,1.60
2011,11,12,03,29,1.60
2011,11,12,03,30,1.60
2011,11,12,03,31,1.60
2011,11,12,03,32,1.60
2011,11,12,03,33,1.60
2011,11,12,03,34,1.60
2011,11,12,03,35,1.60
2011,11,12,03,36,1.50
2011,11,12,03,37,1.50
2011,11,12,03,38,1.50
2011,11,12,03,39,1.50
2011,11,12,03,40,1.60
2011,11,12,03,41,1.60
2011,11,12,03,42,1.60
2011,11,12,03,43,1.60
2011,11,12,03,44,1.60
2011,11,12,03,45,1.60
2011,11,12,03,46,1.60
2011,11,12,03,47,1.60
2011,11,12,03,48,1.60
2011,11,12,03,49,1.60
2011,11,12,03,50,1.60
2011,11,12,03,51,1.60
2011,11,12,03,52,1.60
2011,11,12,03,53,1.60
2011,11,12,03,54,1.60
2011,11,12,03,55,1.60
2011,11,12,03,56,1.60
2011,11,12,03,57,1.60
2011,11,12,03,58,1.60
2011,11,12,03,59,1.60
2011,11,12,04,00,1.60
2011,11,12,04,01,1.60
2011,11,12,04,02,1.60
2011,11,12,04,03,1.60
2011,11,12,04,04,1.60
2011,11,12,04,05,1.60
2011,11,12,04,06,1.60
2011,11,12,04,07,1.60
2011,11,12,04,08,1.60
2011,11,12,04,09,1.60
2011,11,12,04,10,1.50
2011,11,12,04,11,1.50
2011,11,12,04,12,1.50
2011,11,12,04,13,1.50
2011,11,12,04,14,1.40
2011,11,12,04,15,1.40
2011,11,12,04,16,1.40
2011,11,12,04,17,1.30
2011,11,12,04,18,1.30
2011,11,12,04,19,1.30
2011,11,12,04,20,1.30
2011,11,12,04,21,1.30
2011,11,12,04,22,1.30
2011,11,12,04,23,1.30
2011,11,12,04,24,1.30
2011,11,12,04,25,1.30
2011,11,12,04,26,1.30
2011,11,12,04,27,1.30
2011,11,12,04,28,1.30
2011,11,12,04,29,1.30
2011,11,12,04,30,1.30
2011,11,12,04,31,1.30
2011,11,12,04,32,1.30
2011,11,12,04,33,1.30
2011,11,12,04,34,1.30
2011,11,12,04,35,1.30
2011,11,12,04,36,1.30
2011,11,12,04,37,1.30
2011,11,12,04,38,1.30
2011,11,12,04,39,1.30
2011,11,12,04,40,1.30
2011,11,12,04,41,1.30
2011,11,12,04,42,1.30
2011,11,12,04,43,1.30
2011,11,12,04,44,1.30
2011,11,12,04,45,1.30
2011,11,12,04,46,1.30
2011,11,12,04,47,1.30
2011,11,12,04,48,1.30
2011,11,12,04,49,1.30
2011,11,12,04,50,1.30
2011,11,12,04,51,1.30
2011,11,12,04,52,1.30
2011,11,12,04,53,1.30
2011,11,12,04,54,1.30
2011,11,12,04,55,1.40
2011,11,12,04,56,1.40
2011,11,12,04,57,1.40
2011,11,12,04,58,1.40
2011,11,12,04,59,1.40
2011,11,12,05,00,1.40
2011,11,12,05,01,1.40
2011,11,12,05,02,1.50
2011,11,12,05,03,1.50
2011,11,12,05,04,1.50
2011,11,12,05,05,1.50
2011,11,12,05,06,1.60
2011,11,12,05,07,1.60
2011,11,12,05,08,1.60
2011,11,12,05,09,1.60
2011,11,12,05,10,1.60
2011,11,12,05,11,1.70
2011,11,12,05,12,1.70
2011,11,12,05,13,1.70
2011,11,12,05,14,1.70
2011,11,12,05,15,1.70
2011,11,12,05,16,1.70
2011,11,12,05,17,1.70
2011,11,12,05,18,1.70
2011,11,12,05,19,1.70
2011,11,12,05,20,1.70
2011,11,12,05,21,1.70
2011,11,12,05,22,1.70
2011,11,12,05,23,1.80
2011,11,12,05,24,1.80
2011,11,12,05,25,1.80
2011,11,12,05,26,1.80
2011,11,12,05,27,1.80
2011,11,12,05,28,1.80
2011,11,12,05,29,1.80
2011,11,12,05,30,1.80
2011,11,12,05,31,1.80
2011,11,12,05,32,1.80
2011,11,12,05,33,1.80
2011,11,12,05,34,1.90
2011,11,12,05,35,1.90
2011,11,12,05,36,1.90
2011,11,12,05,37,1.90
2011,11,12,05,38,1.90
2011,11,12,05,39,1.90
2011,11,12,05,40,2.00
2011,11,12,05,41,2.00
2011,11,12,05,42,2.00
2011,11,12,05,43,2.00
2011,11,12,05,44,2.00
2011,11,12,05,45,2.00
2011,11,12,05,46,2.00
2011,11,12,05,47,2.00
2011,11,12,05,48,2.10
2011,11,12,05,49,2.10
2011,11,12,05,50,2.10
2011,11,12,05,51,2.10
2011,11,12,05,52,2.20
2011,11,12,05,53,2.20
2011,11,12,05,54,2.20
2011,11,12,05,55,2.20
2011,11,12,05,56,2.20
2011,11,12,05,57,2.20
2011,11,12,05,58,2.20
2011,11,12,05,59,2.20
2011,11,12,06,00,2.20
2011,11,12,06,01,2.20
2011,11,12,06,02,2.30
2011,11,12,06,03,2.30
2011,11,12,06,04,2.30
2011,11,12,06,05,2.30
2011,11,12,06,06,2.30
2011,11,12,06,07,2.30
2011,11,12,06,08,2.40
2011,11,12,06,09,2.40
2011,11,12,06,10,2.40
2011,11,12,06,11,2.40
2011,11,12,06,12,2.40
2011,11,12,06,13,2.40
2011,11,12,06,14,2.50
2011,11,12,06,15,2.50
2011,11,12,06,16,2.70
2011,11,12,06,17,2.90
2011,11,12,06,18,3.10
2011,11,12,06,19,3.30
2011,11,12,06,20,3.50
2011,11,12,06,21,3.70
2011,11,12,06,22,3.90
2011,11,12,06,23,4.00
2011,11,12,06,24,4.10
2011,11,12,06,25,4.20
2011,11,12,06,26,4.30
2011,11,12,06,27,4.40
2011,11,12,06,28,4.50
2011,11,12,06,29,4.60
2011,11,12,06,30,4.70
2011,11,12,06,31,4.90
2011,11,12,06,32,5.00
2011,11,12,06,33,5.10
2011,11,12,06,34,5.20
2011,11,12,06,35,5.20
2011,11,12,06,36,5.30
2011,11,12,06,37,5.30
2011,11,12,06,38,5.40
2011,11,12,06,39,5.40
2011,11,12,06,40,5.40
2011,11,12,06,41,5.40
2011,11,12,06,42,5.50
2011,11,12,06,43,5.50
2011,11,12,06,44,5.60
2011,11,12,06,45,5.70
2011,11,12,06,46,5.70
2011,11,12,06,47,5.70
2011,11,12,06,48,5.80
2011,11,12,06,49,5.80
2011,11,12,06,50,5.90
2011,11,12,06,51,5.90
2011,11,12,06,52,6.00
2011,11,12,06,53,6.00
2011,11,12,06,54,6.10
2011,11,12,06,55,6.10
2011,11,12,06,56,6.10
2011,11,12,06,57,6.20
2011,11,12,06,58,6.20
2011,11,12,06,59,6.20
2011,11,12,07,00,6.20
2011,11,12,07,01,6.20
2011,11,12,07,02,6.20
2011,11,12,07,03,6.20
2011,11,12,07,04,6.20
2011,11,12,07,05,6.20
2011,11,12,07,06,6.30
2011,11,12,07,07,6.30
2011,11,12,07,08,6.30
2011,11,12,07,09,6.30
2011,11,12,07,10,6.40
2011,11,12,07,11,6.40
2011,11,12,07,12,6.40
2011,11,12,07,13,6.40
2011,11,12,07,14,6.40
2011,11,12,07,15,6.30
2011,11,12,07,16,6.30
2011,11,12,07,17,6.30
2011,11,12,07,18,6.30
2011,11,12,07,19,6.20
2011,11,12,07,20,6.20
2011,11,12,07,21,6.20
2011,11,12,07,22,6.20
2011,11,12,07,23,6.20
2011,11,12,07,24,6.20
2011,11,12,07,25,6.20
2011,11,12,07,26,6.20
2011,11,12,07,27,6.20
2011,11,12,07,28,6.20
2011,11,12,07,29,6.20
2011,11,12,07,30,6.20
2011,11,12,07,31,6.20
2011,11,12,07,32,6.30
2011,11,12,07,33,6.30
2011,11,12,07,34,6.30
2011,11,12,07,35,6.40
2011,11,12,07,36,6.40
2011,11,12,07,37,6.40
2011,11,12,07,38,6.40
2011,11,12,07,39,6.40
2011,11,12,07,40,6.50
2011,11,12,07,41,6.60
2011,11,12,07,42,6.60
2011,11,12,07,43,6.60
2011,11,12,07,44,6.60
2011,11,12,07,45,6.60
2011,11,12,07,46,6.60
2011,11,12,07,47,6.60
2011,11,12,07,48,6.60
2011,11,12,07,49,6.60
2011,11,12,07,50,6.60
2011,11,12,07,51,6.60
2011,11,12,07,52,6.60
2011,11,12,07,53,6.60
2011,11,12,07,54,6.60
2011,11,12,07,55,6.70
2011,11,12,07,56,6.70
2011,11,12,07,57,6.70
2011,11,12,07,58,6.70
2011,11,12,07,59,6.80
2011,11,12,08,00,6.80
2011,11,12,08,01,6.80
2011,11,12,08,02,6.80
2011,11,12,08,03,6.80
2011,11,12,08,04,6.80
2011,11,12,08,05,6.80
2011,11,12,08,06,6.80
2011,11,12,08,07,6.80
2011,11,12,08,08,6.80
2011,11,12,08,09,6.80
2011,11,12,08,10,6.80
2011,11,12,08,11,6.80
2011,11,12,08,12,6.80
2011,11,12,08,13,6.80
2011,11,12,08,14,6.80
2011,11,12,08,15,6.80
2011,11,12,08,16,6.80
2011,11,12,08,17,6.80
2011,11,12,08,18,6.80
2011,11,12,08,19,6.80
2011,11,12,08,20,6.80
2011,11,12,08,21,6.80
2011,11,12,08,22,6.80
2011,11,12,08,23,6.90
2011,11,12,08,24,6.90
2011,11,12,08,25,6.90
2011,11,12,08,26,6.90
2011,11,12,08,27,6.90
2011,11,12,08,28,6.90
2011,11,12,08,29,6.90
2011,11,12,08,30,6.90
2011,11,12,08,31,6.90
2011,11,12,08,32,6.90
2011,11,12,08,33,6.90
2011,11,12,08,34,7.00
2011,11,12,08,35,7.00
2011,11,12,08,36,7.00
2011,11,12,08,37,7.00
2011,11,12,08,38,7.00
2011,11,12,08,39,7.00
2011,11,12,08,40,7.10
2011,11,12,08,41,7.10
2011,11,12,08,42,7.20
2011,11,12,08,43,7.20
2011,11,12,08,44,7.20
2011,11,12,08,45,7.30
2011,11,12,08,46,7.30
2011,11,12,08,47,7.30
2011,11,12,08,48,7.30
2011,11,12,08,49,7.30
2011,11,12,08,50,7.30
2011,11,12,08,51,7.30
2011,11,12,08,52,7.30
2011,11,12,08,53,7.30
2011,11,12,08,54,7.30
2011,11,12,08,55,7.20
2011,11,12,08,56,7.20
2011,11,12,08,57,7.20
2011,11,12,08,58,7.30
2011,11,12,08,59,7.30
2011,11,12,09,00,7.30
2011,11,12,09,01,7.30
2011,11,12,09,02,7.30
2011,11,12,09,03,7.30
2011,11,12,09,04,7.30
2011,11,12,09,05,7.40
2011,11,12,09,06,7.40
2011,11,12,09,07,7.40
2011,11,12,09,08,7.40
2011,11,12,09,09,7.40
2011,11,12,09,10,7.40
2011,11,12,09,11,7.40
2011,11,12,09,12,7.40
2011,11,12,09,13,7.40
2011,11,12,09,14,7.50
2011,11,12,09,15,7.50
2011,11,12,09,16,7.50
2011,11,12,09,17,7.50
2011,11,12,09,18,7.50
2011,11,12,09,19,7.50
2011,11,12,09,20,7.60
2011,11,12,09,21,7.60
2011,11,12,09,22,7.60
2011,11,12,09,23,7.60
2011,11,12,09,24,7.70
2011,11,12,09,25,7.70
2011,11,12,09,26,7.70
2011,11,12,09,27,7.80
2011,11,12,09,28,7.80
2011,11,12,09,29,7.80
2011,11,12,09,30,7.80
2011,11,12,09,31,7.80
2011,11,12,09,32,7.80
2011,11,12,09,33,7.80
2011,11,12,09,34,7.80
2011,11,12,09,35,7.80
2011,11,12,09,36,7.80
2011,11,12,09,37,7.80
2011,11,12,09,38,7.80
2011,11,12,09,39,7.80
2011,11,12,09,40,7.80
2011,11,12,09,41,7.90
2011,11,12,09,42,7.90
2011,11,12,09,43,7.90
2011,11,12,09,44,7.90
2011,11,12,09,45,7.90
2011,11,12,09,46,8.00
2011,11,12,09,47,8.00
2011,11,12,09,48,8.00
2011,11,12,09,49,8.00
2011,11,12,09,50,8.00
2011,11,12,09,51,8.00
2011,11,12,09,52,8.00
2011,11,12,09,53,8.00
2011,11,12,09,54,8.00
2011,11,12,09,55,8.00
2011,11,12,09,56,8.00
2011,11,12,09,57,8.00
2011,11,12,09,58,8.00
2011,11,12,09,59,8.00
2011,11,12,10,00,8.00
2011,11,12,10,01,7.90
2011,11,12,10,02,7.90
2011,11,12,10,03,7.90
2011,11,12,10,04,7.90
2011,11,12,10,05,7.90
2011,11,12,10,06,7.90
2011,11,12,10,07,7.90
2011,11,12,10,08,7.90
2011,11,12,10,09,7.80
2011,11,12,10,10,7.80
2011,11,12,10,11,7.80
2011,11,12,10,12,7.80
2011,11,12,10,13,7.80
2011,11,12,10,14,7.80
2011,11,12,10,15,7.80
2011,11,12,10,16,7.80
2011,11,12,10,17,7.80
2011,11,12,10,18,7.80
2011,11,12,10,19,7.80
2011,11,12,10,20,7.80
2011,11,12,10,21,7.80
2011,11,12,10,22,7.80
2011,11,12,10,23,7.80
2011,11,12,10,24,7.80
2011,11,12,10,25,7.80
2011,11,12,10,26,7.80
2011,11,12,10,27,7.80
2011,11,12,10,28,7.80
2011,11,12,10,29,7.80
2011,11,12,10,30,7.70
2011,11,12,10,31,7.70
2011,11,12,10,32,7.70
2011,11,12,10,33,7.70
2011,11,12,10,34,7.60
2011,11,12,10,35,7.60
2011,11,12,10,36,7.60
2011,11,12,10,37,7.60
2011,11,12,10,38,7.60
2011,11,12,10,39,7.60
2011,11,12,10,40,7.50
2011,11,12,10,41,7.50
2011,11,12,10,42,7.50
2011,11,12,10,43,7.50
2011,11,12,10,44,7.50
2011,11,12,10,45,7.50
2011,11,12,10,46,7.50
2011,11,12,10,47,7.50
2011,11,12,10,48,7.50
2011,11,12,10,49,7.50
2011,11,12,10,50,7.50
2011,11,12,10,51,7.50
2011,11,12,10,52,7.50
2011,11,12,10,53,7.50
2011,11,12,10,54,7.50
2011,11,12,10,55,7.50
2011,11,12,10,56,7.50
2011,11,12,10,57,7.50
2011,11,12,10,58,7.50
2011,11,12,10,59,7.40
2011,11,12,11,00,7.40
2011,11,12,11,01,7.40
2011,11,12,11,02,7.30
2011,11,12,11,03,7.30
2011,11,12,11,04,7.30
2011,11,12,11,05,7.30
2011,11,12,11,06,7.20
2011,11,12,11,07,7.20
2011,11,12,11,08,7.20
2011,11,12,11,09,7.20
2011,11,12,11,10,7.20
2011,11,12,11,11,7.20
2011,11,12,11,12,7.20
2011,11,12,11,13,7.10
2011,11,12,11,14,7.10
2011,11,12,11,15,7.10
2011,11,12,11,16,7.10
2011,11,12,11,17,7.10
2011,11,12,11,18,7.10
2011,11,12,11,19,7.10
2011,11,12,11,20,7.10
2011,11,12,11,21,7.10
2011,11,12,11,22,7.10
2011,11,12,11,23,7.10
2011,11,12,11,24,7.10
2011,11,12,11,25,7.10
2011,11,12,11,26,7.10
2011,11,12,11,27,7.10
2011,11,12,11,28,7.10
2011,11,12,11,29,7.10
2011,11,12,11,30,7.10
2011,11,12,11,31,7.10
2011,11,12,11,32,7.10
2011,11,12,11,33,7.10
2011,11,12,11,34,7.10
2011,11,12,11,35,7.10
2011,11,12,11,36,7.10
2011,11,12,11,37,7.10
2011,11,12,11,38,7.00
2011,11,12,11,39,7.00
2011,11,12,11,40,7.00
2011,11,12,11,41,7.00
2011,11,12,11,42,7.00
2011,11,12,11,43,7.00
2011,11,12,11,44,7.00
2011,11,12,11,45,6.90
2011,11,12,11,46,6.90
2011,11,12,11,47,6.80
2011,11,12,11,48,6.80
2011,11,12,11,49,6.80
2011,11,12,11,50,6.80
2011,11,12,11,51,6.90
2011,11,12,11,52,6.90
2011,11,12,11,53,6.90
2011,11,12,11,54,6.80
2011,11,12,11,55,6.80
2011,11,12,11,56,6.80
2011,11,12,11,57,6.80
2011,11,12,11,58,6.70
2011,11,12,11,59,6.70
2011,11,12,12,00,6.70
2011,11,12,12,01,6.70
2011,11,12,12,02,6.60
2011,11,12,12,03,6.60
2011,11,12,12,04,6.60
2011,11,12,12,05,6.60
2011,11,12,12,06,6.60
2011,11,12,12,07,6.60
2011,11,12,12,08,6.60
2011,11,12,12,09,6.60
2011,11,12,12,10,6.60
2011,11,12,12,11,6.60
2011,11,12,12,12,6.60
2011,11,12,12,13,6.60
2011,11,12,12,14,6.60
2011,11,12,12,15,6.50
2011,11,12,12,16,6.50
2011,11,12,12,17,6.40
2011,11,12,12,18,6.40
2011,11,12,12,19,6.40
2011,11,12,12,20,6.40
2011,11,12,12,21,6.40
2011,11,12,12,22,6.40
2011,11,12,12,23,6.40
2011,11,12,12,24,6.40
2011,11,12,12,25,6.40
2011,11,12,12,26,6.40
2011,11,12,12,27,6.40
2011,11,12,12,28,6.40
2011,11,12,12,29,6.40
2011,11,12,12,30,6.40
2011,11,12,12,31,6.40
2011,11,12,12,32,6.40
2011,11,12,12,33,6.30
2011,11,12,12,34,6.30
2011,11,12,12,35,6.30
2011,11,12,12,36,6.30
2011,11,12,12,37,6.30
2011,11,12,12,38,6.30
2011,11,12,12,39,6.30
2011,11,12,12,40,6.30
2011,11,12,12,41,6.30
2011,11,12,12,42,6.30
2011,11,12,12,43,6.20
2011,11,12,12,44,6.20
2011,11,12,12,45,6.20
2011,11,12,12,46,6.20
2011,11,12,12,47,6.20
2011,11,12,12,48,6.20
2011,11,12,12,49,6.20
2011,11,12,12,50,6.20
2011,11,12,12,51,6.20
2011,11,12,12,52,6.20
2011,11,12,12,53,6.20
2011,11,12,12,54,6.20
2011,11,12,12,55,6.20
2011,11,12,12,56,6.20
2011,11,12,12,57,6.20
2011,11,12,12,58,6.10
2011,11,12,12,59,6.10
2011,11,12,13,00,6.10
2011,11,12,13,01,6.10
2011,11,12,13,02,6.10
2011,11,12,13,03,6.10
2011,11,12,13,04,6.10
2011,11,12,13,05,6.10
2011,11,12,13,06,6.00
2011,11,12,13,07,6.00
2011,11,12,13,08,6.00
2011,11,12,13,09,6.00
2011,11,12,13,10,6.00
2011,11,12,13,11,5.90
2011,11,12,13,12,5.90
2011,11,12,13,13,5.90
2011,11,12,13,14,5.90
2011,11,12,13,15,5.90
2011,11,12,13,16,5.80
2011,11,12,13,17,5.80
2011,11,12,13,18,5.80
2011,11,12,13,19,5.80
2011,11,12,13,20,5.80
2011,11,12,13,21,5.80
2011,11,12,13,22,5.80
2011,11,12,13,23,5.80
2011,11,12,13,24,5.80
2011,11,12,13,25,5.80
2011,11,12,13,26,5.70
2011,11,12,13,27,5.70
2011,11,12,13,28,5.70
2011,11,12,13,29,5.70
2011,11,12,13,30,5.70
2011,11,12,13,31,5.70
2011,11,12,13,32,5.70
2011,11,12,13,33,5.70
2011,11,12,13,34,5.70
2011,11,12,13,35,5.70
2011,11,12,13,36,5.70
2011,11,12,13,37,5.70
2011,11,12,13,38,5.70
2011,11,12,13,39,5.70
2011,11,12,13,40,5.70
2011,11,12,13,41,5.70
2011,11,12,13,42,5.70
2011,11,12,13,43,5.70
2011,11,12,13,44,5.70
2011,11,12,13,45,5.70
2011,11,12,13,46,5.70
2011,11,12,13,47,5.70
2011,11,12,13,48,5.70
2011,11,12,13,49,5.70
2011,11,12,13,50,5.70
2011,11,12,13,51,5.70
2011,11,12,13,52,5.70
2011,11,12,13,53,5.70
2011,11,12,13,54,5.70
2011,11,12,13,55,5.70
2011,11,12,13,56,5.70
2011,11,12,13,57,5.70
2011,11,12,13,58,5.70
2011,11,12,13,59,5.70
2011,11,12,14,00,5.70
2011,11,12,14,01,5.70
2011,11,12,14,02,5.70
2011,11,12,14,03,5.70
2011,11,12,14,04,5.70
2011,11,12,14,05,5.70
2011,11,12,14,06,5.70
2011,11,12,14,07,5.70
2011,11,12,14,08,5.70
2011,11,12,14,09,5.70
2011,11,12,14,10,5.70
2011,11,12,14,11,5.70
2011,11,12,14,12,5.70
2011,11,12,14,13,5.70
2011,11,12,14,14,5.70
2011,11,12,14,15,5.70
2011,11,12,14,16,5.70
2011,11,12,14,17,5.70
2011,11,12,14,18,5.70
2011,11,12,14,19,5.70
2011,11,12,14,20,5.70
2011,11,12,14,21,5.70
2011,11,12,14,22,5.70
2011,11,12,14,23,5.70
2011,11,12,14,24,5.70
2011,11,12,14,25,5.70
2011,11,12,14,26,5.70
2011,11,12,14,27,5.60
2011,11,12,14,28,5.60
2011,11,12,14,29,5.50
2011,11,12,14,30,5.50
2011,11,12,14,31,5.50
2011,11,12,14,32,5.50
2011,11,12,14,33,5.50
2011,11,12,14,34,5.50
2011,11,12,14,35,5.50
2011,11,12,14,36,5.50
2011,11,12,14,37,5.50
2011,11,12,14,38,5.50
2011,11,12,14,39,5.60
2011,11,12,14,40,5.60
2011,11,12,14,41,5.60
2011,11,12,14,42,5.60
2011,11,12,14,43,5.50
2011,11,12,14,44,5.60
2011,11,12,14,45,5.60
2011,11,12,14,46,5.60
2011,11,12,14,47,5.60
2011,11,12,14,48,5.60
2011,11,12,14,49,5.60
2011,11,12,14,50,5.60
2011,11,12,14,51,5.60
2011,11,12,14,52,5.70
2011,11,12,14,53,5.70
2011,11,12,14,54,5.70
2011,11,12,14,55,5.70
2011,11,12,14,56,5.70
2011,11,12,14,57,5.70
2011,11,12,14,58,5.70
2011,11,12,14,59,5.70
2011,11,12,15,00,5.70
2011,11,12,15,01,5.70
2011,11,12,15,02,5.70
2011,11,12,15,03,5.70
2011,11,12,15,04,5.70
2011,11,12,15,05,5.70
2011,11,12,15,06,5.70
2011,11,12,15,07,5.70
2011,11,12,15,08,5.70
2011,11,12,15,09,5.70
2011,11,12,15,10,5.70
2011,11,12,15,11,5.70
2011,11,12,15,12,5.70
2011,11,12,15,13,5.70
2011,11,12,15,14,5.80
2011,11,12,15,15,5.80
2011,11,12,15,16,5.80
2011,11,12,15,17,5.80
2011,11,12,15,18,5.80
2011,11,12,15,19,5.80
2011,11,12,15,20,5.90
2011,11,12,15,21,5.90
2011,11,12,15,22,5.90
2011,11,12,15,23,6.00
2011,11,12,15,24,6.00
2011,11,12,15,25,6.00
2011,11,12,15,26,6.00
2011,11,12,15,27,6.00
2011,11,12,15,28,6.00
2011,11,12,15,29,6.00
2011,11,12,15,30,6.00
2011,11,12,15,31,5.90
2011,11,12,15,32,5.90
2011,11,12,15,33,5.90
2011,11,12,15,34,5.90
2011,11,12,15,35,5.90
2011,11,12,15,36,6.00
2011,11,12,15,37,6.00
2011,11,12,15,38,6.00
2011,11,12,15,39,6.00
2011,11,12,15,40,6.00
2011,11,12,15,41,6.00
2011,11,12,15,42,6.10
2011,11,12,15,43,6.10
2011,11,12,15,44,6.10
2011,11,12,15,45,6.10
2011,11,12,15,46,6.10
2011,11,12,15,47,6.10
2011,11,12,15,48,6.10
2011,11,12,15,49,6.10
2011,11,12,15,50,6.10
2011,11,12,15,51,6.20
2011,11,12,15,52,6.20
2011,11,12,15,53,6.20
2011,11,12,15,54,6.20
2011,11,12,15,55,6.20
2011,11,12,15,56,6.20
2011,11,12,15,57,6.20
2011,11,12,15,58,6.20
2011,11,12,15,59,6.20
2011,11,12,16,00,6.30
2011,11,12,16,01,6.30
2011,11,12,16,02,6.30
2011,11,12,16,03,6.30
2011,11,12,16,04,6.40
2011,11,12,16,05,6.40
2011,11,12,16,06,6.40
2011,11,12,16,07,6.40
2011,11,12,16,08,6.40
2011,11,12,16,09,6.40
2011,11,12,16,10,6.40
2011,11,12,16,11,6.50
2011,11,12,16,12,6.60
2011,11,12,16,13,6.60
2011,11,12,16,14,6.60
2011,11,12,16,15,6.60
2011,11,12,16,16,6.60
2011,11,12,16,17,6.60
2011,11,12,16,18,6.60
2011,11,12,16,19,6.60
2011,11,12,16,20,6.60
2011,11,12,16,21,6.60
2011,11,12,16,22,6.60
2011,11,12,16,23,6.60
2011,11,12,16,24,6.60
2011,11,12,16,25,6.60
2011,11,12,16,26,6.60
2011,11,12,16,27,6.60
2011,11,12,16,28,6.60
2011,11,12,16,29,6.60
2011,11,12,16,30,6.60
2011,11,12,16,31,6.60
2011,11,12,16,32,6.60
2011,11,12,16,33,6.60
2011,11,12,16,34,6.60
2011,11,12,16,35,6.60
2011,11,12,16,36,6.60
2011,11,12,16,37,6.60
2011,11,12,16,38,6.60
2011,11,12,16,39,6.60
2011,11,12,16,40,6.60
2011,11,12,16,41,6.60
2011,11,12,16,42,6.60
2011,11,12,16,43,6.60
2011,11,12,16,44,6.60
2011,11,12,16,45,6.60
2011,11,12,16,46,6.60
2011,11,12,16,47,6.60
2011,11,12,16,48,6.60
2011,11,12,16,49,6.60
2011,11,12,16,50,6.60
2011,11,12,16,51,6.70
2011,11,12,16,52,6.70
2011,11,12,16,53,6.70
2011,11,12,16,54,6.70
2011,11,12,16,55,6.70
2011,11,12,16,56,6.70
2011,11,12,16,57,6.70
2011,11,12,16,58,6.70
2011,11,12,16,59,6.70
2011,11,12,17,00,6.70
2011,11,12,17,01,6.60
2011,11,12,17,02,6.60
2011,11,12,17,03,6.60
2011,11,12,17,04,6.60
2011,11,12,17,05,6.70
2011,11,12,17,06,6.70
2011,11,12,17,07,6.70
2011,11,12,17,08,6.70
2011,11,12,17,09,6.70
2011,11,12,17,10,6.70
2011,11,12,17,11,6.70
2011,11,12,17,12,6.70
2011,11,12,17,13,6.70
2011,11,12,17,14,6.70
2011,11,12,17,15,6.70
2011,11,12,17,16,6.70
2011,11,12,17,17,6.70
2011,11,12,17,18,6.70
2011,11,12,17,19,6.80
2011,11,12,17,20,6.80
2011,11,12,17,21,6.80
2011,11,12,17,22,6.80
2011,11,12,17,23,6.70
2011,11,12,17,24,6.70
2011,11,12,17,25,6.70
2011,11,12,17,26,6.70
2011,11,12,17,27,6.70
2011,11,12,17,28,6.70
2011,11,12,17,29,6.70
2011,11,12,17,30,6.70
2011,11,12,17,31,6.70
2011,11,12,17,32,6.70
2011,11,12,17,33,6.70
2011,11,12,17,34,6.70
2011,11,12,17,35,6.70
2011,11,12,17,36,6.70
2011,11,12,17,37,6.70
2011,11,12,17,38,6.70
2011,11,12,17,39,6.70
2011,11,12,17,40,6.70
2011,11,12,17,41,6.70
2011,11,12,17,42,6.70
2011,11,12,17,43,6.70
2011,11,12,17,44,6.70
2011,11,12,17,45,6.70
2011,11,12,17,46,6.70
2011,11,12,17,47,6.80
2011,11,12,17,48,6.80
2011,11,12,17,49,6.80
2011,11,12,17,50,6.80
2011,11,12,17,51,6.80
2011,11,12,17,52,6.80
2011,11,12,17,53,6.80
2011,11,12,17,54,6.80
2011,11,12,17,55,6.80
2011,11,12,17,56,6.80
2011,11,12,17,57,6.80
2011,11,12,17,58,6.80
2011,11,12,17,59,6.80
2011,11,12,18,00,6.80
2011,11,12,18,01,6.80
2011,11,12,18,02,6.80
2011,11,12,18,03,6.80
2011,11,12,18,04,6.80
2011,11,12,18,05,6.80
2011,11,12,18,06,6.80